Station CHAV3 - 9751639 - Charlotte Amalie, VI Image indicating link to RSS feed of recent meteorological observations for station CHAV3


Conditions at CHAV3 as of
(6:18 am AST)
1018 GMT on 04/21/2024:
     

Click on the graph icon in the table below to see a time series plot of the last five days of that observation.

5-day plot - Wind Direction Wind Direction (WDIR):ENE ( 60 deg true )
5-day plot - Wind Speed Wind Speed (WSPD): 9.9 kts
5-day plot - Wind Gust Wind Gust (GST): 13.0 kts
5-day plot - Atmospheric Pressure Atmospheric Pressure (PRES):29.94 in
5-day plot - Air Temperature Air Temperature (ATMP): 79.9 °F
5-day plot - Water Temperature Water Temperature (WTMP): 82.4 °F
5-day plot - Wind Speed at 10 Meters Wind Speed at 10 meters (WSPD10M): 9.7 kts
5-day plot - Wind Speed at 20 Meters Wind Speed at 20 meters (WSPD20M): 11.7 kts
5-day plot -  Wind Speed, Wind Gust and Atmospheric Pressure Combined plot of Wind Speed, Gust, and Air Pressure
NOS Water Level Observation Network Water Level
Previous observations
TIME
(AST)
5-day plot - Wind Direction
WDIR
 
5-day plot - Wind Speed
WSPD
kts
5-day plot - Wind Gust
GST
kts
5-day plot - Wave Height
WVHT
ft
5-day plot - Dominant Wave Period
DPD
sec
5-day plot - Average Wave Period
APD
sec
5-day plot - Mean Wave Direction
MWD
 
5-day plot - Atmospheric Pressure
PRES
in
5-day plot - Pressure Tendency
PTDY
in
5-day plot - Air Temperature
ATMP
°F
5-day plot - Water Temperature
WTMP
°F
5-day plot - Dew Point
DEWP
°F
5-day plot - Salinity
SAL
psu
5-day plot - Visibility
VIS
nmi
5-day plot - Tide (above MLLW)
TIDE
ft
2024-04-21 06:12 am NE 11.1 13.0----29.94- 79.9 82.4----
2024-04-21 06:06 amENE 11.1 15.0----29.93- 79.9 82.4----
2024-04-21 06:00 amENE 7.0 13.0----29.94+0.02 79.7 82.4----
2024-04-21 05:54 amENE 8.9 12.0----29.93- 79.7 82.4----
2024-04-21 05:48 am E 7.0 15.0----29.93- 79.5 82.4----
2024-04-21 05:42 am E 7.0 12.0----29.93- 79.5 82.4----
2024-04-21 05:36 amENE 7.0 12.0----29.93- 79.7 82.4----
2024-04-21 05:30 amENE 8.0 13.0----29.92- 79.7 82.4----
2024-04-21 05:24 amENE 8.0 9.9----29.92- 79.7 82.4----
2024-04-21 05:18 amENE 6.0 12.0----29.92- 79.9 82.4----
2024-04-21 05:12 amENE 9.9 15.9----29.92- 79.9 82.4----
2024-04-21 05:06 amENE 9.9 12.0----29.92- 79.9 82.4----
2024-04-21 05:00 am NE 9.9 13.0----29.92-0.01 79.9 82.4----
2024-04-21 04:54 am NE 8.0 13.0----29.92- 79.9 82.4----
2024-04-21 04:48 am NE 8.9 14.0----29.92- 79.7 82.4----
2024-04-21 04:42 amENE 8.9 13.0----29.92- 79.7 82.4----
2024-04-21 04:36 amENE 8.9 14.0----29.91- 79.7 82.4----
2024-04-21 04:30 amENE 8.9 14.0----29.91- 79.5 82.4----
2024-04-21 04:24 amENE 9.9 13.0----29.91- 79.7 82.4----
2024-04-21 04:18 amENE 8.0 12.0----29.91-- 82.4----
2024-04-21 04:12 amENE 7.0 11.1----29.91-- 82.4----
2024-04-21 04:06 amENE 9.9 12.0----29.91-- 82.4----
2024-04-21 04:00 am NE 9.9 17.1------ 79.9 82.4----
2024-04-21 03:54 amENE 12.0 15.9------ 79.9 82.4----
2024-04-21 03:48 am NE 11.1 15.9----29.91- 79.9 82.4----
2024-04-21 03:42 amENE 9.9 13.0----29.91- 79.9 82.4----
2024-04-21 03:36 am NE 8.0 14.0----29.91- 80.1 82.4----
2024-04-21 03:30 am NE 11.1 14.0----29.91- 79.9 82.4----
2024-04-21 03:24 am NE 8.9 13.0----29.92- 80.2 82.4----
2024-04-21 03:18 amENE 11.1 15.0----29.91- 80.1 82.4----
2024-04-21 03:12 am NE 8.9 14.0----29.92- 80.1 82.6----
2024-04-21 03:06 am NE 12.0 14.0----29.91- 80.1 82.6----
2024-04-21 03:00 am NE 8.0 14.0----29.92-0.06 80.1 82.6----
2024-04-21 02:54 amENE 8.0 13.0----29.92- 80.1 82.4----
2024-04-21 02:48 am NE 8.0 14.0----29.92- 80.1 82.4----
2024-04-21 02:42 amENE 7.0 14.0----29.92- 80.1 82.4----
2024-04-21 02:36 am NE 11.1 14.0----29.92- 80.1 82.6----
2024-04-21 02:30 amENE 7.0 13.0----29.92- 79.9 82.6----
2024-04-21 02:24 amENE 8.9 14.0----29.92- 80.1 82.6----
2024-04-21 02:18 amENE 9.9 18.1----29.93- 80.1 82.6----
2024-04-21 02:12 amENE 12.0 17.1----29.93- 80.1 82.6----
2024-04-21 02:06 am NE 8.0 13.0----29.93- 80.1 82.6----
2024-04-21 02:00 am NE 8.9 15.0----29.93-0.06 80.1 82.6----
2024-04-21 01:54 am NE 11.1 14.0----29.93- 80.1 82.6----
2024-04-21 01:48 am NE 8.9 12.0----29.93- 80.1 82.6----
2024-04-21 01:42 am NE 12.0 15.9----29.93- 80.1 82.6----
2024-04-21 01:36 am NE 12.0 15.0----29.94- 80.1 82.6----
2024-04-21 01:30 am NE 11.1 14.0----29.94- 80.1 82.6----
2024-04-21 01:24 am NE 11.1 15.0----29.94- 80.1 82.6----
2024-04-21 01:18 am NE 7.0 15.0----29.94- 80.2 82.6----
2024-04-21 01:12 am NE 8.9 14.0----29.95- 80.1 82.6----
2024-04-21 01:06 am NE 11.1 14.0----29.95- 80.2 82.6----
2024-04-21 01:00 am NE 8.0 12.0----29.95-0.03 80.2 82.6----
2024-04-21 12:54 am NE 8.9 12.0----29.96- 80.2 82.6----
2024-04-21 12:48 amENE 8.9 14.0----29.96- 80.1 82.6----
2024-04-21 12:42 am NE 9.9 15.0----29.97- 80.2 82.6----
2024-04-21 12:36 am NE 11.1 14.0----29.97- 80.2 82.6----
2024-04-21 12:30 am NE 9.9 14.0----29.97- 80.2 82.6----
2024-04-21 12:24 am NE 8.0 12.0----29.97- 80.2 82.6----
2024-04-21 12:18 am NE 8.0 14.0----29.98- 80.2 82.6----
2024-04-21 12:12 am NE 7.0 12.0----29.98- 80.2 82.6----
2024-04-21 12:06 am NE 9.9 15.0----29.98- 80.2 82.6----
2024-04-21 12:00 am NE 12.0 14.0----29.98+0.00 80.2 82.6----
2024-04-20 11:54 pm NE 12.0 17.1----29.98- 80.2 82.6----
2024-04-20 11:48 pm NE 8.9 12.0----29.98- 80.2 82.6----
2024-04-20 11:42 pm NE 7.0 11.1----29.98- 80.2 82.6----
2024-04-20 11:36 pmENE 6.0 11.1----29.98- 80.2 82.6----
2024-04-20 11:30 pmENE 7.0 11.1----29.99- 80.1 82.6----
2024-04-20 11:24 pmENE 6.0 12.0----29.99- 80.2 82.6----
2024-04-20 11:18 pmENE 8.9 11.1----29.99- 80.2 82.6----
2024-04-20 11:12 pmENE 7.0 8.9----29.99- 80.2 82.6----
2024-04-20 11:06 pmENE 7.0 9.9----29.99- 80.2 82.8----
2024-04-20 11:00 pm E 4.1 11.1----29.99+0.02 80.1 82.8----
2024-04-20 10:54 pmENE 8.0 11.1----29.99- 80.2 82.8----
2024-04-20 10:48 pmENE 9.9 14.0----29.99- 80.4 82.8----
2024-04-20 10:42 pmENE 8.9 12.0----29.99- 80.4 82.8----
2024-04-20 10:36 pm NE 9.9 14.0----29.99- 80.6 82.8----
2024-04-20 10:30 pmENE 5.1 9.9----29.99- 80.4 82.8----
2024-04-20 10:24 pmENE 8.0 9.9----29.99- 80.6 82.8----
2024-04-20 10:18 pmENE 7.0 11.1----29.99- 80.6 82.8----
2024-04-20 10:12 pm NE 8.0 12.0----29.99- 80.6 82.8----
2024-04-20 10:06 pmENE 9.9 13.0----29.98- 80.6 82.8----
2024-04-20 10:00 pmENE 8.9 13.0----29.98+0.04 80.6 82.8----
2024-04-20 09:54 pm NE 9.9 15.0----29.98- 80.6 82.8----
2024-04-20 09:48 pmENE 6.0 12.0----29.98- 80.8 82.8----
2024-04-20 09:42 pm NE 11.1 13.0----29.98- 80.6 82.8----
2024-04-20 09:36 pm NE 9.9 15.9----29.98- 80.6 82.8----
2024-04-20 09:30 pm NE 11.1 15.0----29.98- 80.6 82.8----
2024-04-20 09:24 pm NE 9.9 15.0----29.98- 80.8 82.8----
2024-04-20 09:18 pmENE 9.9 15.9----29.98- 80.8 82.9----
2024-04-20 09:12 pmENE 8.0 12.0----29.98- 80.8 82.9----
2024-04-20 09:06 pm NE 8.9 14.0----29.98- 80.8 82.9----
2024-04-20 09:00 pm NE 11.1 18.1----29.98+0.04 80.8 82.9----
2024-04-20 08:54 pm NE 8.9 14.0----29.98- 80.8 82.9----
2024-04-20 08:48 pm NE 7.0 13.0----29.98- 80.8 82.9----
2024-04-20 08:42 pm NE 12.0 14.0----29.97- 80.8 82.9----
2024-04-20 08:36 pmENE 8.9 12.0----29.97- 80.8 82.9----
2024-04-20 08:30 pmENE 8.0 13.0----29.97- 80.8 82.9----
2024-04-20 08:24 pm NE 8.9 12.0----29.97- 80.8 82.9----
2024-04-20 08:18 pmENE 8.0 13.0------ 80.8 82.9----
2024-04-20 08:12 pmENE 8.0 14.0------ 81.0 82.9----
2024-04-20 08:06 pmENE 8.9 13.0------ 80.8 82.9----
2024-04-20 08:00 pmENE 7.0 11.1----29.97+0.04 80.8 82.9----
2024-04-20 07:54 pmENE 8.0 11.1----29.96- 81.0 82.9----
2024-04-20 07:48 pmENE 6.0 12.0----29.96-- 82.9----
2024-04-20 07:42 pm NE 8.0 11.1----29.96-- 82.9----
2024-04-20 07:36 pmENE 8.0 9.9----29.96-- 82.9----
2024-04-20 07:30 pmENE 7.0 11.1----29.96- 81.0 82.9----
2024-04-20 07:24 pm NE 9.9 12.0----29.96- 81.0 82.9----
2024-04-20 07:18 pm NE 9.9 15.9----29.96-- 82.9----
2024-04-20 07:12 pm NE 8.9 14.0----29.95-- 82.9----
2024-04-20 07:06 pm NE 8.0 9.9----29.95-- 82.9----
2024-04-20 07:00 pm NE 8.0 11.1----29.95+0.02 81.0 82.9----
2024-04-20 06:54 pm NE 8.0 11.1----29.95- 81.1 82.9----
2024-04-20 06:48 pm NE 8.9 13.0----29.95- 81.1 82.9----
2024-04-20 06:42 pm NE 8.9 12.0----29.94- 81.1 82.9----
2024-04-20 06:36 pmENE 7.0 13.0----29.94- 81.1 82.9----
2024-04-20 06:30 pmENE 9.9 14.0----29.94- 81.3 82.9----
2024-04-20 06:24 pmENE 8.9 13.0----29.94- 81.3 83.1----
2024-04-20 06:18 pmENE 9.9 12.0----29.94- 81.5 83.1----
2024-04-20 06:12 pm NE 8.0 12.0----29.94- 81.9 83.1----
2024-04-20 06:06 pm NE 8.9 14.0----29.94- 81.7 83.1----
2024-04-20 06:00 pm-------29.93+0.00 81.7 83.1----
2024-04-20 05:54 pm-------29.93- 82.0 83.1----
2024-04-20 05:48 pmENE 8.9 15.9----29.93- 82.0 83.1----
2024-04-20 05:42 pmNNE 9.9 15.9----29.93- 82.0 83.1----
2024-04-20 05:36 pmNNE 11.1 15.0----29.93- 82.4 83.1----
2024-04-20 05:30 pm NE 11.1 15.9----29.93- 82.2 83.1----
2024-04-20 05:24 pmNNE 13.0 15.9----29.93- 82.2 83.1----
2024-04-20 05:18 pmNNE 9.9 15.9----29.93- 81.9 83.1----
2024-04-20 05:12 pmNNE 13.0 17.1----29.93- 82.0 83.1----
2024-04-20 05:06 pmNNE 13.0 17.1----29.93- 82.2 83.1----
2024-04-20 05:00 pmNNE 13.0 15.9----29.93-0.03 82.2 83.3----
2024-04-20 04:54 pmNNE 13.0 17.1----29.93- 82.4 83.3----
2024-04-20 04:48 pmNNE 12.0 17.1----29.93-- 83.3----
2024-04-20 04:42 pmNNE 14.0 19.0----29.93-- 83.3----
2024-04-20 04:36 pmNNE 14.0 18.1----29.93-- 83.3----
2024-04-20 04:30 pm NE 8.9 17.1----29.93- 82.9 83.3----
2024-04-20 04:24 pmNNE 14.0 18.1----29.93- 82.4 83.3----
2024-04-20 04:18 pmNNE 13.0 15.9------ 82.6 83.3----
2024-04-20 04:12 pmENE 9.9 15.0------ 83.5 83.3----
2024-04-20 04:06 pmNNE 15.0 18.1------ 82.2 83.3----
2024-04-20 04:00 pm-------29.93-0.05 82.9 83.3----
2024-04-20 03:54 pm-------29.93- 83.7 83.3----
2024-04-20 03:48 pm NE 12.0 15.9----29.93- 83.5 83.3----
2024-04-20 03:42 pm NE 9.9 17.1----29.93- 82.9 83.3----
2024-04-20 03:36 pm NE 11.1 17.1----29.93- 82.8 83.3----
2024-04-20 03:30 pm NE 14.0 17.1----29.93- 82.9 83.3----
2024-04-20 03:24 pmNNE 12.0 15.9----29.93- 82.9 83.1----
2024-04-20 03:18 pmNNE 11.1 15.9----29.93- 83.1 83.3----
2024-04-20 03:12 pmNNE 13.0 19.0----29.94- 82.9 83.1----
2024-04-20 03:06 pm NE 11.1 17.1----29.94- 83.5 83.1----
2024-04-20 03:00 pmNNE 14.0 17.1----29.94-0.05------
2024-04-20 02:54 pm NE 9.9 15.0----29.94-------
2024-04-20 02:48 pm NE 8.9 13.0----29.94- 84.0 83.1----
2024-04-20 02:42 pmNNE 12.0 17.1----29.94- 83.5 83.1----
2024-04-20 02:36 pmENE 9.9 14.0----29.94- 83.8 83.1----
2024-04-20 02:30 pmNNE 9.9 19.0------ 82.6 83.1----
2024-04-20 02:24 pm NE 13.0 19.0------ 82.8 83.1----
2024-04-20 02:18 pmENE 9.9 13.0----29.94- 83.7 83.1----
2024-04-20 02:12 pmENE 11.1 15.9----29.95- 83.7 83.1----
2024-04-20 02:06 pm NE 8.0 12.0----29.95- 83.3 83.1----
2024-04-20 02:00 pm NE 8.9 14.0----29.96-0.05 82.8 83.1----
2024-04-20 01:54 pmENE 9.9 15.0----29.96- 82.6 83.1----
2024-04-20 01:48 pm NE 9.9 15.9----29.96- 82.0 83.1----
2024-04-20 01:42 pm NE 8.9 13.0----29.96- 82.6 82.9----
2024-04-20 01:36 pmENE 6.0 11.1----29.96- 82.8 82.9----
2024-04-20 01:30 pm E 9.9 14.0----29.97- 82.0 82.9----
2024-04-20 01:24 pmENE 11.1 15.0----29.97- 81.9 82.9----
2024-04-20 01:18 pmENE 7.0 11.1----29.98- 82.4 82.9----
2024-04-20 01:12 pm E 8.9 12.0----29.98- 82.0 82.9----
2024-04-20 01:06 pm E 11.1 15.0----29.98- 82.0 82.9----
2024-04-20 01:00 pmENE 9.9 15.9----29.98-0.03 82.4 82.9----
2024-04-20 12:54 pmNNE 14.0 18.1----29.98- 81.7 82.9----
2024-04-20 12:48 pmNNE 15.0 18.1----29.98- 81.5 82.9----
2024-04-20 12:42 pmNNE 15.0 18.1----29.98- 81.5 82.9----
2024-04-20 12:36 pmNNE 15.9 20.0----29.98- 81.3 82.9----
2024-04-20 12:30 pmNNE 15.0 18.1----29.99- 81.3 82.9----
2024-04-20 12:24 pmNNE 15.9 18.1----29.99- 81.3 82.9----
2024-04-20 12:18 pmNNE 15.0 18.1----29.99- 81.3 82.9----
2024-04-20 12:12 pmNNE 15.9 19.0----29.99- 81.3 82.9----
2024-04-20 12:06 pmNNE 15.9 20.0----29.99- 81.5 82.9----
2024-04-20 12:00 pmNNE 15.9 19.0----29.99+0.00 81.5 82.9----
2024-04-20 11:54 amNNE 15.9 19.0----30.00- 81.7 82.9----
2024-04-20 11:48 amNNE 17.1 19.0----30.00- 81.7 82.9----
2024-04-20 11:42 amNNE 17.1 20.0----30.00- 81.5 82.9----
2024-04-20 11:36 amNNE 15.9 19.0----30.00- 81.5 82.9----
2024-04-20 11:30 amNNE 15.0 18.1----30.00- 81.3 82.9----
2024-04-20 11:24 amNNE 17.1 18.1----30.00- 81.1 82.9----
2024-04-20 11:18 amNNE 15.9 19.0----30.00- 81.1 82.9----
2024-04-20 11:12 amNNE 15.0 18.1----30.01- 81.1 82.9----
2024-04-20 11:06 amNNE 15.9 19.0----30.01- 81.3 82.9----
2024-04-20 11:00 amNNE 15.9 20.0----30.01+0.02 81.1 82.9----
2024-04-20 10:54 amNNE 15.0 18.1----30.01- 81.1 82.9----
2024-04-20 10:48 amNNE 15.0 19.0----30.01- 81.7 82.9----
2024-04-20 10:42 amNNE 15.9 18.1----30.01- 81.3 82.9----
2024-04-20 10:36 amNNE 15.0 19.0----30.01- 81.5 82.9----
2024-04-20 10:30 amNNE 15.9 21.0----30.01- 81.9 82.9----
2024-04-20 10:24 amNNE 15.9 19.0----30.01- 81.9 82.9----
2024-04-20 10:18 amNNE 14.0 17.1----30.01- 81.9 82.9----
2024-04-20 10:12 amNNE 15.0 19.0----30.01- 81.5 82.9----
2024-04-20 10:06 amNNE 15.0 18.1----30.01- 81.9 82.9----
2024-04-20 10:00 amNNE 15.0 20.0----30.01+0.04 81.7 82.9----
2024-04-20 09:54 amNNE 15.0 19.0----30.01- 81.7 82.9----
2024-04-20 09:48 amNNE 14.0 17.1----30.01-- 82.9----
2024-04-20 09:42 amNNE 15.0 19.0----30.01-- 82.9----
2024-04-20 09:36 amNNE 15.9 19.0----30.01-- 82.9----
2024-04-20 09:30 amNNE 14.0 18.1----30.01- 81.3 82.8----
2024-04-20 09:24 amNNE 15.0 19.0----30.01- 81.1 82.9----
2024-04-20 09:18 amNNE 14.0 19.0----30.01- 81.3 82.8----
2024-04-20 09:12 amNNE 14.0 17.1----30.01- 81.3 82.8----
2024-04-20 09:06 amNNE 14.0 19.0----30.00- 81.5 82.8----
2024-04-20 09:00 amNNE 14.0 18.1----30.00+0.04 81.5 82.8----
2024-04-20 08:54 amNNE 13.0 17.1----30.00- 81.5 82.8----
2024-04-20 08:48 amNNE 14.0 15.9----30.00- 81.5 82.8----
2024-04-20 08:42 amNNE 15.0 17.1----30.00- 81.3 82.8----
2024-04-20 08:36 amNNE 14.0 18.1----30.00- 81.3 82.8----
2024-04-20 08:30 amNNE 15.0 18.1----29.99- 81.0 82.8----
2024-04-20 08:24 amNNE 15.0 19.0----29.99- 80.8 82.8----
2024-04-20 08:18 amNNE 15.0 17.1----29.99- 81.0 82.8----
2024-04-20 08:12 amNNE 14.0 17.1----29.99- 80.6 82.8----
2024-04-20 08:06 amNNE 12.0 21.0----29.99- 81.1 82.8----
2024-04-20 08:00 am NE 9.9 13.0----29.98+0.04 81.5 82.8----
2024-04-20 07:54 amNNE 9.9 15.9----29.99- 81.5 82.8----
2024-04-20 07:48 am NE 12.0 15.9----29.98- 81.3 82.8----
2024-04-20 07:42 am NE 9.9 14.0----29.98- 81.3 82.8----
2024-04-20 07:36 am NE 12.0 15.9----29.98- 81.1 82.8----
2024-04-20 07:30 amNNE 13.0 15.0----29.98- 81.0 82.8----
2024-04-20 07:24 am NE 8.9 13.0----29.98- 81.1 82.8----
2024-04-20 07:18 am NE 8.0 12.0----29.98- 81.3 82.8----
2024-04-20 07:12 am NE 9.9 15.0----29.97- 80.8 82.8----
2024-04-20 07:06 am NE 11.1 13.0----29.97- 80.8 82.9----
2024-04-20 07:00 am NE 8.9 13.0----29.97+0.04 80.6 82.9----
2024-04-20 06:54 am NE 9.9 12.0----29.97- 80.6 82.9----
2024-04-20 06:48 am NE 8.9 13.0----29.97- 80.2 82.9----
2024-04-20 06:42 am NE 8.0 11.1----29.96- 80.1 82.9----
2024-04-20 06:36 am NE 8.9 12.0----29.96- 79.9 82.9----
2024-04-20 06:30 am NE 8.0 11.1----29.96-- 82.9----
2024-04-20 06:24 am NE 8.0 12.0----29.96-- 82.9----
2024-04-20 06:18 am NE 8.9 11.1----29.96- 79.9 82.9----
2024-04-20 06:12 am NE 8.0 11.1----29.96- 79.9 82.9----
2024-04-20 06:06 am NE 8.9 11.1----29.95- 79.9 82.9----
2024-04-20 06:00 am NE 8.9 12.0----29.96+0.03- 82.9----
2024-04-20 05:54 am NE 7.0 11.1----29.95-- 82.9----